contact:dominique.lefevre@mio.osupytheas.fr, maurice.libes@osupytheas.fr, didier.mallarino@osupytheas.fr
Project:EMSO http://www.emso-fr.org/EMSO-France
Depth: 2436.0 m
Title:EMSO Ligure Ouest : Data MII capteur MICROCAT
DateTime_Computer,Latitude,Longitude,Temperature,Conductivity,Pressure,DateTime_Instrument
DateTime_Computer,Latitude,Longitude,degC,S m-1,dbar,DateTime_Instrument
2020-11-06T00:01:41Z,42.805,6.029,13.2975,4.59978,2470.227,2020-11-06T02:02:37Z
2020-11-06T00:04:45Z,42.805,6.029,13.2975,4.59978,2470.203,2020-11-06T02:05:40Z
2020-11-06T00:07:48Z,42.805,6.029,13.2974,4.59980,2470.18,2020-11-06T02:08:43Z
2020-11-06T00:10:51Z,42.805,6.029,13.2974,4.59980,2470.203,2020-11-06T02:11:47Z
2020-11-06T00:13:54Z,42.805,6.029,13.2981,4.59979,2470.18,2020-11-06T02:14:50Z
2020-11-06T00:16:57Z,42.805,6.029,13.2976,4.59981,2470.18,2020-11-06T02:17:53Z
2020-11-06T00:20:00Z,42.805,6.029,13.2979,4.59978,2470.156,2020-11-06T02:20:56Z
2020-11-06T00:23:03Z,42.805,6.029,13.2977,4.59979,2470.156,2020-11-06T02:23:59Z
2020-11-06T00:26:06Z,42.805,6.029,13.2977,4.59979,2470.203,2020-11-06T02:27:02Z
2020-11-06T00:29:10Z,42.805,6.029,13.2978,4.59979,2470.194,2020-11-06T02:30:05Z
2020-11-06T00:32:13Z,42.805,6.029,13.2977,4.59982,2470.156,2020-11-06T02:33:08Z
2020-11-06T00:35:16Z,42.805,6.029,13.2978,4.59985,2470.18,2020-11-06T02:36:12Z
2020-11-06T00:38:19Z,42.805,6.029,13.2981,4.59981,2470.171,2020-11-06T02:39:15Z
2020-11-06T00:41:22Z,42.805,6.029,13.2977,4.59979,2470.18,2020-11-06T02:42:18Z
2020-11-06T00:44:25Z,42.805,6.029,13.2978,4.59981,2470.171,2020-11-06T02:45:21Z
2020-11-06T00:47:28Z,42.805,6.029,13.2979,4.59981,2470.18,2020-11-06T02:48:24Z
2020-11-06T00:50:31Z,42.805,6.029,13.2977,4.59983,2470.194,2020-11-06T02:51:27Z
2020-11-06T00:53:34Z,42.805,6.029,13.2977,4.59980,2470.18,2020-11-06T02:54:30Z
2020-11-06T00:56:38Z,42.805,6.029,13.2980,4.59981,2470.171,2020-11-06T02:57:33Z
2020-11-06T00:59:41Z,42.805,6.029,13.2979,4.59981,2470.194,2020-11-06T03:00:36Z
2020-11-06T01:02:44Z,42.805,6.029,13.2979,4.59981,2470.194,2020-11-06T03:03:40Z
2020-11-06T01:05:47Z,42.805,6.029,13.2973,4.59981,2470.156,2020-11-06T03:06:43Z
2020-11-06T01:08:50Z,42.805,6.029,13.2980,4.59987,2470.156,2020-11-06T03:09:46Z
2020-11-06T01:11:53Z,42.805,6.029,13.2977,4.59982,2470.156,2020-11-06T03:12:49Z
2020-11-06T01:14:56Z,42.805,6.029,13.2975,4.59995,2470.156,2020-11-06T03:15:52Z
2020-11-06T01:17:59Z,42.805,6.029,13.2981,4.59984,2470.156,2020-11-06T03:18:55Z
2020-11-06T01:21:03Z,42.805,6.029,13.2977,4.59980,2470.18,2020-11-06T03:21:58Z
2020-11-06T01:24:06Z,42.805,6.029,13.2978,4.59982,2470.133,2020-11-06T03:25:01Z
2020-11-06T01:27:09Z,42.805,6.029,13.2979,4.59982,2470.133,2020-11-06T03:28:05Z
2020-11-06T01:30:12Z,42.805,6.029,13.2977,4.59981,2470.147,2020-11-06T03:31:08Z
2020-11-06T01:33:15Z,42.805,6.029,13.2976,4.59980,2470.124,2020-11-06T03:34:11Z
2020-11-06T01:36:18Z,42.805,6.029,13.2977,4.59995,2470.156,2020-11-06T03:37:14Z
2020-11-06T01:39:21Z,42.805,6.029,13.2977,4.59982,2470.156,2020-11-06T03:40:17Z
2020-11-06T01:42:24Z,42.805,6.029,13.2976,4.59979,2470.171,2020-11-06T03:43:20Z
2020-11-06T01:45:27Z,42.805,6.029,13.2976,4.59980,2470.156,2020-11-06T03:46:23Z
2020-11-06T01:48:31Z,42.805,6.029,13.2979,4.59980,2470.147,2020-11-06T03:49:26Z
2020-11-06T01:51:34Z,42.805,6.029,13.2979,4.59982,2470.133,2020-11-06T03:52:29Z
2020-11-06T01:54:37Z,42.805,6.029,13.2978,4.59979,2470.156,2020-11-06T03:55:33Z
2020-11-06T01:57:40Z,42.805,6.029,13.2979,4.59980,2470.171,2020-11-06T03:58:36Z
2020-11-06T02:00:43Z,42.805,6.029,13.2977,4.59981,2470.133,2020-11-06T04:01:39Z
2020-11-06T02:03:46Z,42.805,6.029,13.2983,4.59981,2470.133,2020-11-06T04:04:42Z
2020-11-06T02:06:49Z,42.805,6.029,13.2982,4.59983,2470.11,2020-11-06T04:07:45Z
2020-11-06T02:09:52Z,42.805,6.029,13.2976,4.59985,2470.156,2020-11-06T04:10:48Z
2020-11-06T02:12:56Z,42.805,6.029,13.2974,4.59991,2470.133,2020-11-06T04:13:51Z
2020-11-06T02:15:59Z,42.805,6.029,13.2982,4.59984,2470.133,2020-11-06T04:16:54Z
2020-11-06T02:19:02Z,42.805,6.029,13.2976,4.59984,2470.133,2020-11-06T04:19:58Z
2020-11-06T02:22:05Z,42.805,6.029,13.2981,4.59983,2470.156,2020-11-06T04:23:01Z
2020-11-06T02:25:08Z,42.805,6.029,13.2981,4.59983,2470.171,2020-11-06T04:26:04Z
2020-11-06T02:28:11Z,42.805,6.029,13.2976,4.59982,2470.133,2020-11-06T04:29:07Z
2020-11-06T02:31:14Z,42.805,6.029,13.2980,4.59983,2470.11,2020-11-06T04:32:10Z
2020-11-06T02:34:17Z,42.805,6.029,13.2977,4.59982,2470.11,2020-11-06T04:35:13Z
2020-11-06T02:37:20Z,42.805,6.029,13.2979,4.59981,2470.11,2020-11-06T04:38:16Z
2020-11-06T02:40:24Z,42.805,6.029,13.2982,4.59981,2470.147,2020-11-06T04:41:19Z
2020-11-06T02:43:27Z,42.805,6.029,13.2976,4.59981,2470.156,2020-11-06T04:44:22Z
2020-11-06T02:46:30Z,42.805,6.029,13.2978,4.59985,2470.156,2020-11-06T04:47:26Z
2020-11-06T02:49:33Z,42.805,6.029,13.2977,4.59991,2470.11,2020-11-06T04:50:29Z
2020-11-06T02:52:36Z,42.805,6.029,13.2979,4.59987,2470.156,2020-11-06T04:53:32Z
2020-11-06T02:55:39Z,42.805,6.029,13.2981,4.59988,2470.133,2020-11-06T04:56:35Z
2020-11-06T02:58:42Z,42.805,6.029,13.2974,4.59986,2470.147,2020-11-06T04:59:38Z
2020-11-06T03:01:45Z,42.805,6.029,13.2981,4.59983,2470.133,2020-11-06T05:02:41Z
2020-11-06T03:04:48Z,42.805,6.029,13.2976,4.59987,2470.171,2020-11-06T05:05:44Z
2020-11-06T03:07:52Z,42.805,6.029,13.2974,4.59995,2470.171,2020-11-06T05:08:47Z
2020-11-06T03:10:55Z,42.805,6.029,13.2976,4.59985,2470.156,2020-11-06T05:11:50Z
2020-11-06T03:13:58Z,42.805,6.029,13.2980,4.59985,2470.171,2020-11-06T05:14:54Z
2020-11-06T03:17:01Z,42.805,6.029,13.2977,4.59989,2470.124,2020-11-06T05:17:57Z
2020-11-06T03:20:04Z,42.805,6.029,13.2978,4.59989,2470.11,2020-11-06T05:21:00Z
2020-11-06T03:23:07Z,42.805,6.029,13.2978,4.59985,2470.133,2020-11-06T05:24:03Z
2020-11-06T03:26:10Z,42.805,6.029,13.2976,4.59991,2470.133,2020-11-06T05:27:06Z
2020-11-06T03:29:13Z,42.805,6.029,13.2976,4.59987,2470.156,2020-11-06T05:30:09Z
2020-11-06T03:32:17Z,42.805,6.029,13.2979,4.59987,2470.11,2020-11-06T05:33:12Z
2020-11-06T03:35:20Z,42.805,6.029,13.2978,4.59983,2470.133,2020-11-06T05:36:15Z
2020-11-06T03:38:23Z,42.805,6.029,13.2974,4.59986,2470.171,2020-11-06T05:39:19Z
2020-11-06T03:41:26Z,42.805,6.029,13.2981,4.59983,2470.156,2020-11-06T05:42:22Z
2020-11-06T03:44:29Z,42.805,6.029,13.2976,4.59983,2470.133,2020-11-06T05:45:25Z
2020-11-06T03:47:32Z,42.805,6.029,13.2979,4.59985,2470.133,2020-11-06T05:48:28Z
2020-11-06T03:50:35Z,42.805,6.029,13.2981,4.59983,2470.133,2020-11-06T05:51:31Z
2020-11-06T03:53:38Z,42.805,6.029,13.2979,4.59986,2470.147,2020-11-06T05:54:34Z
2020-11-06T03:56:41Z,42.805,6.029,13.2978,4.59990,2470.133,2020-11-06T05:57:37Z
2020-11-06T03:59:45Z,42.805,6.029,13.2979,4.59989,2470.147,2020-11-06T06:00:40Z
2020-11-06T04:02:48Z,42.805,6.029,13.2976,4.59987,2470.133,2020-11-06T06:03:44Z
2020-11-06T04:05:51Z,42.805,6.029,13.2979,4.59986,2470.133,2020-11-06T06:06:47Z
2020-11-06T04:08:54Z,42.805,6.029,13.2978,4.59983,2470.133,2020-11-06T06:09:50Z
2020-11-06T04:11:57Z,42.805,6.029,13.2980,4.59984,2470.124,2020-11-06T06:12:53Z
2020-11-06T04:15:00Z,42.805,6.029,13.2976,4.59986,2470.147,2020-11-06T06:15:56Z
2020-11-06T04:18:03Z,42.805,6.029,13.2976,4.59985,2470.133,2020-11-06T06:18:59Z
2020-11-06T04:21:06Z,42.805,6.029,13.2980,4.59985,2470.133,2020-11-06T06:22:02Z
2020-11-06T04:24:10Z,42.805,6.029,13.2974,4.59991,2470.147,2020-11-06T06:25:05Z
2020-11-06T04:27:13Z,42.805,6.029,13.2976,4.59983,2470.11,2020-11-06T06:28:08Z
2020-11-06T04:30:16Z,42.805,6.029,13.2977,4.59986,2470.147,2020-11-06T06:31:12Z
2020-11-06T04:33:19Z,42.805,6.029,13.2977,4.59986,2470.11,2020-11-06T06:34:15Z
2020-11-06T04:36:22Z,42.805,6.029,13.2976,4.59983,2470.11,2020-11-06T06:37:18Z
2020-11-06T04:39:25Z,42.805,6.029,13.2972,4.59987,2470.147,2020-11-06T06:40:21Z
2020-11-06T04:42:28Z,42.805,6.029,13.2972,4.59984,2470.11,2020-11-06T06:43:24Z
2020-11-06T04:45:31Z,42.805,6.029,13.2976,4.59986,2470.147,2020-11-06T06:46:27Z
2020-11-06T04:48:34Z,42.805,6.029,13.2979,4.59985,2470.147,2020-11-06T06:49:30Z
2020-11-06T04:51:38Z,42.805,6.029,13.2979,4.59986,2470.133,2020-11-06T06:52:33Z
2020-11-06T04:54:41Z,42.805,6.029,13.2976,4.59985,2470.124,2020-11-06T06:55:37Z
2020-11-06T04:57:44Z,42.805,6.029,13.2981,4.59985,2470.171,2020-11-06T06:58:40Z
2020-11-06T05:00:47Z,42.805,6.029,13.2976,4.59983,2470.133,2020-11-06T07:01:43Z
2020-11-06T05:03:50Z,42.805,6.029,13.2979,4.59983,2470.11,2020-11-06T07:04:46Z
2020-11-06T05:06:53Z,42.805,6.029,13.2979,4.59983,2470.133,2020-11-06T07:07:49Z
2020-11-06T05:09:56Z,42.805,6.029,13.2975,4.59982,2470.156,2020-11-06T07:10:52Z
2020-11-06T05:12:59Z,42.805,6.029,13.2979,4.59983,2470.124,2020-11-06T07:13:55Z
2020-11-06T05:16:03Z,42.805,6.029,13.2979,4.59983,2470.171,2020-11-06T07:16:58Z
2020-11-06T05:19:06Z,42.805,6.029,13.2980,4.59983,2470.133,2020-11-06T07:20:01Z
2020-11-06T05:22:09Z,42.805,6.029,13.2979,4.59980,2470.133,2020-11-06T07:23:05Z
2020-11-06T05:25:12Z,42.805,6.029,13.2977,4.59980,2470.133,2020-11-06T07:26:08Z
2020-11-06T05:28:15Z,42.805,6.029,13.2979,4.59981,2470.156,2020-11-06T07:29:11Z
2020-11-06T05:31:18Z,42.805,6.029,13.2976,4.59981,2470.147,2020-11-06T07:32:14Z
2020-11-06T05:34:21Z,42.805,6.029,13.2974,4.59982,2470.171,2020-11-06T07:35:17Z
2020-11-06T05:37:24Z,42.805,6.029,13.2979,4.59981,2470.11,2020-11-06T07:38:20Z
2020-11-06T05:40:27Z,42.805,6.029,13.2976,4.59981,2470.133,2020-11-06T07:41:23Z
2020-11-06T05:43:31Z,42.805,6.029,13.2976,4.59982,2470.147,2020-11-06T07:44:26Z
2020-11-06T05:46:34Z,42.805,6.029,13.2978,4.59981,2470.156,2020-11-06T07:47:30Z
2020-11-06T05:49:37Z,42.805,6.029,13.2976,4.59981,2470.156,2020-11-06T07:50:33Z
2020-11-06T05:52:40Z,42.805,6.029,13.2977,4.59982,2470.147,2020-11-06T07:53:36Z
2020-11-06T05:55:43Z,42.805,6.029,13.2977,4.59983,2470.147,2020-11-06T07:56:39Z
2020-11-06T05:58:46Z,42.805,6.029,13.2980,4.59983,2470.217,2020-11-06T07:59:42Z
2020-11-06T06:01:49Z,42.805,6.029,13.2976,4.59984,2470.156,2020-11-06T08:02:45Z
2020-11-06T06:04:52Z,42.805,6.029,13.2976,4.59982,2470.18,2020-11-06T08:05:48Z
2020-11-06T06:07:56Z,42.805,6.029,13.2978,4.59984,2470.18,2020-11-06T08:08:51Z
2020-11-06T06:10:59Z,42.805,6.029,13.2975,4.59982,2470.156,2020-11-06T08:11:54Z
2020-11-06T06:14:02Z,42.805,6.029,13.2978,4.59981,2470.203,2020-11-06T08:14:58Z
2020-11-06T06:17:05Z,42.805,6.029,13.2976,4.59982,2470.203,2020-11-06T08:18:01Z
2020-11-06T06:20:08Z,42.805,6.029,13.2980,4.59982,2470.18,2020-11-06T08:21:04Z
2020-11-06T06:23:11Z,42.805,6.029,13.2979,4.59981,2470.171,2020-11-06T08:24:07Z
2020-11-06T06:26:14Z,42.805,6.029,13.2972,4.59981,2470.156,2020-11-06T08:27:10Z
2020-11-06T06:29:17Z,42.805,6.029,13.2976,4.59980,2470.156,2020-11-06T08:30:13Z
2020-11-06T06:32:20Z,42.805,6.029,13.2982,4.59982,2470.18,2020-11-06T08:33:16Z
2020-11-06T06:35:24Z,42.805,6.029,13.2977,4.59981,2470.156,2020-11-06T08:36:19Z
2020-11-06T06:38:27Z,42.805,6.029,13.2974,4.59980,2470.194,2020-11-06T08:39:22Z
2020-11-06T06:41:30Z,42.805,6.029,13.2976,4.59981,2470.18,2020-11-06T08:42:26Z
2020-11-06T06:44:33Z,42.805,6.029,13.2978,4.59981,2470.18,2020-11-06T08:45:29Z
2020-11-06T06:47:36Z,42.805,6.029,13.2976,4.59984,2470.203,2020-11-06T08:48:32Z
2020-11-06T06:50:39Z,42.805,6.029,13.2979,4.59981,2470.217,2020-11-06T08:51:35Z
2020-11-06T06:53:42Z,42.805,6.029,13.2978,4.59981,2470.203,2020-11-06T08:54:38Z
2020-11-06T06:56:45Z,42.805,6.029,13.2981,4.59983,2470.18,2020-11-06T08:57:41Z
2020-11-06T06:59:49Z,42.805,6.029,13.2975,4.59981,2470.24,2020-11-06T09:00:44Z
2020-11-06T07:02:52Z,42.805,6.029,13.2978,4.59981,2470.203,2020-11-06T09:03:47Z
2020-11-06T07:05:55Z,42.805,6.029,13.2976,4.59979,2470.18,2020-11-06T09:06:51Z
2020-11-06T07:08:58Z,42.805,6.029,13.2978,4.59979,2470.18,2020-11-06T09:09:54Z
2020-11-06T07:12:01Z,42.805,6.029,13.2975,4.59981,2470.227,2020-11-06T09:12:57Z
2020-11-06T07:15:04Z,42.805,6.029,13.2979,4.59980,2470.203,2020-11-06T09:16:00Z
2020-11-06T07:18:07Z,42.805,6.029,13.2979,4.59979,2470.24,2020-11-06T09:19:03Z
2020-11-06T07:21:10Z,42.805,6.029,13.2978,4.59978,2470.203,2020-11-06T09:22:06Z
2020-11-06T07:24:13Z,42.805,6.029,13.2977,4.59978,2470.194,2020-11-06T09:25:09Z
2020-11-06T07:27:17Z,42.805,6.029,13.2976,4.59979,2470.203,2020-11-06T09:28:12Z
2020-11-06T07:30:20Z,42.805,6.029,13.2971,4.59981,2470.203,2020-11-06T09:31:15Z
2020-11-06T07:33:23Z,42.805,6.029,13.2974,4.59981,2470.203,2020-11-06T09:34:19Z
2020-11-06T07:36:26Z,42.805,6.029,13.2981,4.59981,2470.264,2020-11-06T09:37:22Z
2020-11-06T07:39:29Z,42.805,6.029,13.2975,4.59979,2470.227,2020-11-06T09:40:25Z
2020-11-06T07:42:32Z,42.805,6.029,13.2974,4.59979,2470.227,2020-11-06T09:43:28Z
2020-11-06T07:45:35Z,42.805,6.029,13.2978,4.59978,2470.24,2020-11-06T09:46:31Z
2020-11-06T07:48:38Z,42.805,6.029,13.2977,4.59982,2470.24,2020-11-06T09:49:34Z
2020-11-06T07:51:41Z,42.805,6.029,13.2975,4.59980,2470.264,2020-11-06T09:52:37Z
2020-11-06T07:54:45Z,42.805,6.029,13.2974,4.59979,2470.24,2020-11-06T09:55:40Z
2020-11-06T07:57:48Z,42.805,6.029,13.2978,4.59980,2470.273,2020-11-06T09:58:43Z
2020-11-06T08:00:51Z,42.805,6.029,13.2976,4.59981,2470.264,2020-11-06T10:01:47Z
2020-11-06T08:03:54Z,42.805,6.029,13.2974,4.59980,2470.25,2020-11-06T10:04:50Z
2020-11-06T08:06:57Z,42.805,6.029,13.2975,4.59980,2470.273,2020-11-06T10:07:53Z
2020-11-06T08:10:00Z,42.805,6.029,13.2974,4.59980,2470.25,2020-11-06T10:10:56Z
2020-11-06T08:13:03Z,42.805,6.029,13.2982,4.59980,2470.287,2020-11-06T10:13:59Z
2020-11-06T08:16:06Z,42.805,6.029,13.2980,4.59981,2470.25,2020-11-06T10:17:02Z
2020-11-06T08:19:10Z,42.805,6.029,13.2976,4.59980,2470.273,2020-11-06T10:20:05Z
2020-11-06T08:22:13Z,42.805,6.029,13.2978,4.59981,2470.287,2020-11-06T10:23:08Z
2020-11-06T08:25:16Z,42.805,6.029,13.2978,4.59983,2470.25,2020-11-06T10:26:12Z
2020-11-06T08:28:19Z,42.805,6.029,13.2976,4.59981,2470.273,2020-11-06T10:29:15Z
2020-11-06T08:31:22Z,42.805,6.029,13.2976,4.59978,2470.264,2020-11-06T10:32:18Z
2020-11-06T08:34:25Z,42.805,6.029,13.2978,4.59979,2470.273,2020-11-06T10:35:21Z
2020-11-06T08:37:28Z,42.805,6.029,13.2976,4.59983,2470.287,2020-11-06T10:38:24Z
2020-11-06T08:40:31Z,42.805,6.029,13.2978,4.59981,2470.273,2020-11-06T10:41:27Z
2020-11-06T08:43:35Z,42.805,6.029,13.2977,4.59981,2470.25,2020-11-06T10:44:30Z
2020-11-06T08:46:38Z,42.805,6.029,13.2976,4.59983,2470.32,2020-11-06T10:47:33Z
2020-11-06T08:49:41Z,42.805,6.029,13.2979,4.59984,2470.32,2020-11-06T10:50:37Z
2020-11-06T08:52:44Z,42.805,6.029,13.2979,4.59981,2470.31,2020-11-06T10:53:40Z
2020-11-06T08:55:47Z,42.805,6.029,13.2977,4.59980,2470.297,2020-11-06T10:56:43Z
2020-11-06T08:58:50Z,42.805,6.029,13.2979,4.59983,2470.273,2020-11-06T10:59:46Z
2020-11-06T09:01:53Z,42.805,6.029,13.2977,4.59981,2470.287,2020-11-06T11:02:49Z
2020-11-06T09:04:56Z,42.805,6.029,13.2976,4.59980,2470.273,2020-11-06T11:05:52Z
2020-11-06T09:07:59Z,42.805,6.029,13.2979,4.59980,2470.31,2020-11-06T11:08:55Z
2020-11-06T09:11:03Z,42.805,6.029,13.2976,4.59980,2470.297,2020-11-06T11:11:58Z
2020-11-06T09:14:06Z,42.805,6.029,13.2979,4.59980,2470.31,2020-11-06T11:15:02Z
2020-11-06T09:17:09Z,42.805,6.029,13.2976,4.59981,2470.297,2020-11-06T11:18:05Z
2020-11-06T09:20:12Z,42.805,6.029,13.2973,4.59983,2470.297,2020-11-06T11:21:08Z
2020-11-06T09:23:15Z,42.805,6.029,13.2978,4.59979,2470.32,2020-11-06T11:24:11Z
2020-11-06T09:26:18Z,42.805,6.029,13.2977,4.59981,2470.287,2020-11-06T11:27:14Z
2020-11-06T09:29:21Z,42.805,6.029,13.2974,4.59978,2470.297,2020-11-06T11:30:17Z
2020-11-06T09:32:24Z,42.805,6.029,13.2978,4.59980,2470.297,2020-11-06T11:33:20Z
2020-11-06T09:35:28Z,42.805,6.029,13.2976,4.59980,2470.334,2020-11-06T11:36:23Z
2020-11-06T09:38:31Z,42.805,6.029,13.2975,4.59979,2470.32,2020-11-06T11:39:27Z
2020-11-06T09:41:34Z,42.805,6.029,13.2978,4.59979,2470.334,2020-11-06T11:42:30Z
2020-11-06T09:44:37Z,42.805,6.029,13.2974,4.59979,2470.297,2020-11-06T11:45:33Z
2020-11-06T09:47:40Z,42.805,6.029,13.2979,4.59979,2470.32,2020-11-06T11:48:36Z
2020-11-06T09:50:43Z,42.805,6.029,13.2977,4.59980,2470.32,2020-11-06T11:51:39Z
2020-11-06T09:53:46Z,42.805,6.029,13.2975,4.59980,2470.334,2020-11-06T11:54:42Z
2020-11-06T09:56:49Z,42.805,6.029,13.2978,4.59979,2470.26,2020-11-06T11:57:45Z
2020-11-06T09:59:53Z,42.805,6.029,13.2976,4.59981,2470.334,2020-11-06T12:00:48Z
2020-11-06T10:02:56Z,42.805,6.029,13.2979,4.59979,2470.334,2020-11-06T12:03:52Z
2020-11-06T10:05:59Z,42.805,6.029,13.2975,4.59979,2470.32,2020-11-06T12:06:55Z
2020-11-06T10:09:02Z,42.805,6.029,13.2979,4.59980,2470.343,2020-11-06T12:09:58Z
2020-11-06T10:12:05Z,42.805,6.029,13.2977,4.59980,2470.31,2020-11-06T12:13:01Z
2020-11-06T10:15:08Z,42.805,6.029,13.2977,4.59981,2470.31,2020-11-06T12:16:04Z
2020-11-06T10:18:11Z,42.805,6.029,13.2977,4.59981,2470.32,2020-11-06T12:19:07Z
2020-11-06T10:21:14Z,42.805,6.029,13.2975,4.59979,2470.343,2020-11-06T12:22:10Z
2020-11-06T10:24:18Z,42.805,6.029,13.2977,4.59980,2470.334,2020-11-06T12:25:13Z
2020-11-06T10:27:21Z,42.805,6.029,13.2982,4.59982,2470.32,2020-11-06T12:28:16Z
2020-11-06T10:30:24Z,42.805,6.029,13.2982,4.59983,2470.297,2020-11-06T12:31:20Z
2020-11-06T10:33:27Z,42.805,6.029,13.2978,4.59979,2470.297,2020-11-06T12:34:23Z
2020-11-06T10:36:30Z,42.805,6.029,13.2979,4.59979,2470.32,2020-11-06T12:37:26Z
2020-11-06T10:39:33Z,42.805,6.029,13.2976,4.59979,2470.334,2020-11-06T12:40:29Z
2020-11-06T10:42:36Z,42.805,6.029,13.2979,4.59980,2470.334,2020-11-06T12:43:32Z
2020-11-06T10:45:39Z,42.805,6.029,13.2974,4.59979,2470.32,2020-11-06T12:46:35Z
2020-11-06T10:48:43Z,42.805,6.029,13.2976,4.59981,2470.297,2020-11-06T12:49:38Z
2020-11-06T10:51:46Z,42.805,6.029,13.2976,4.59979,2470.334,2020-11-06T12:52:41Z
2020-11-06T10:54:49Z,42.805,6.029,13.2979,4.59980,2470.32,2020-11-06T12:55:45Z
2020-11-06T10:57:52Z,42.805,6.029,13.2976,4.59980,2470.32,2020-11-06T12:58:48Z
2020-11-06T11:00:55Z,42.805,6.029,13.2976,4.59979,2470.32,2020-11-06T13:01:51Z
2020-11-06T11:03:58Z,42.805,6.029,13.2978,4.59981,2470.334,2020-11-06T13:04:54Z
2020-11-06T11:07:01Z,42.805,6.029,13.2977,4.59979,2470.357,2020-11-06T13:07:57Z
2020-11-06T11:10:04Z,42.805,6.029,13.2974,4.59981,2470.334,2020-11-06T13:11:00Z
2020-11-06T11:13:08Z,42.805,6.029,13.2977,4.59979,2470.32,2020-11-06T13:14:03Z
2020-11-06T11:16:11Z,42.805,6.029,13.2976,4.59980,2470.297,2020-11-06T13:17:06Z
2020-11-06T11:19:14Z,42.805,6.029,13.2976,4.59980,2470.297,2020-11-06T13:20:10Z
2020-11-06T11:22:17Z,42.805,6.029,13.2976,4.59980,2470.334,2020-11-06T13:23:13Z
2020-11-06T11:25:20Z,42.805,6.029,13.2977,4.59980,2470.31,2020-11-06T13:26:16Z
2020-11-06T11:28:23Z,42.805,6.029,13.2978,4.59979,2470.334,2020-11-06T13:29:19Z
2020-11-06T11:31:26Z,42.805,6.029,13.2977,4.59979,2470.297,2020-11-06T13:32:22Z
2020-11-06T11:34:29Z,42.805,6.029,13.2977,4.59980,2470.287,2020-11-06T13:35:25Z
2020-11-06T11:37:32Z,42.805,6.029,13.2976,4.59980,2470.273,2020-11-06T13:38:28Z
2020-11-06T11:40:36Z,42.805,6.029,13.2976,4.59979,2470.31,2020-11-06T13:41:31Z
2020-11-06T11:43:39Z,42.805,6.029,13.2976,4.59980,2470.31,2020-11-06T13:44:35Z
2020-11-06T11:46:42Z,42.805,6.029,13.2976,4.59979,2470.31,2020-11-06T13:47:38Z
2020-11-06T11:49:45Z,42.805,6.029,13.2980,4.59980,2470.297,2020-11-06T13:50:41Z
2020-11-06T11:52:48Z,42.805,6.029,13.2981,4.59980,2470.273,2020-11-06T13:53:44Z
2020-11-06T11:55:51Z,42.805,6.029,13.2979,4.59976,2470.297,2020-11-06T13:56:47Z
2020-11-06T11:58:54Z,42.805,6.029,13.2978,4.59979,2470.32,2020-11-06T13:59:50Z
2020-11-06T12:01:57Z,42.805,6.029,13.2979,4.59981,2470.32,2020-11-06T14:02:53Z
2020-11-06T12:05:01Z,42.805,6.029,13.2979,4.59980,2470.25,2020-11-06T14:05:56Z
2020-11-06T12:08:04Z,42.805,6.029,13.2978,4.59980,2470.31,2020-11-06T14:09:00Z
2020-11-06T12:11:07Z,42.805,6.029,13.2979,4.59981,2470.31,2020-11-06T14:12:03Z
2020-11-06T12:14:10Z,42.805,6.029,13.2980,4.59981,2470.273,2020-11-06T14:15:06Z
2020-11-06T12:17:13Z,42.805,6.029,13.2973,4.59981,2470.31,2020-11-06T14:18:09Z
2020-11-06T12:20:16Z,42.805,6.029,13.2980,4.59981,2470.273,2020-11-06T14:21:12Z
2020-11-06T12:23:19Z,42.805,6.029,13.2977,4.59982,2470.273,2020-11-06T14:24:15Z
2020-11-06T12:26:22Z,42.805,6.029,13.2978,4.59982,2470.273,2020-11-06T14:27:18Z
2020-11-06T12:29:26Z,42.805,6.029,13.2976,4.59981,2470.273,2020-11-06T14:30:21Z
2020-11-06T12:32:29Z,42.805,6.029,13.2983,4.59980,2470.264,2020-11-06T14:33:24Z
2020-11-06T12:35:32Z,42.805,6.029,13.2979,4.59980,2470.273,2020-11-06T14:36:28Z
2020-11-06T12:38:35Z,42.805,6.029,13.2982,4.59984,2470.287,2020-11-06T14:39:31Z
2020-11-06T12:41:38Z,42.805,6.029,13.2974,4.59981,2470.273,2020-11-06T14:42:34Z
2020-11-06T12:44:41Z,42.805,6.029,13.2976,4.59980,2470.25,2020-11-06T14:45:37Z
2020-11-06T12:47:44Z,42.805,6.029,13.2978,4.59980,2470.273,2020-11-06T14:48:40Z
2020-11-06T12:50:47Z,42.805,6.029,13.2978,4.59981,2470.273,2020-11-06T14:51:43Z
2020-11-06T12:53:51Z,42.805,6.029,13.2976,4.59981,2470.25,2020-11-06T14:54:46Z
2020-11-06T12:56:54Z,42.805,6.029,13.2978,4.59980,2470.227,2020-11-06T14:57:49Z
2020-11-06T12:59:57Z,42.805,6.029,13.2974,4.59979,2470.273,2020-11-06T15:00:53Z
2020-11-06T13:03:00Z,42.805,6.029,13.2979,4.59979,2470.25,2020-11-06T15:03:56Z
2020-11-06T13:06:03Z,42.805,6.029,13.2976,4.59981,2470.287,2020-11-06T15:06:59Z
2020-11-06T13:09:06Z,42.805,6.029,13.2978,4.59980,2470.24,2020-11-06T15:10:02Z
2020-11-06T13:12:09Z,42.805,6.029,13.2980,4.59980,2470.25,2020-11-06T15:13:05Z
2020-11-06T13:15:12Z,42.805,6.029,13.2977,4.59981,2470.25,2020-11-06T15:16:08Z
2020-11-06T13:18:15Z,42.805,6.029,13.2977,4.59981,2470.25,2020-11-06T15:19:11Z
2020-11-06T13:21:19Z,42.805,6.029,13.2979,4.59981,2470.25,2020-11-06T15:22:14Z
2020-11-06T13:24:22Z,42.805,6.029,13.2976,4.59983,2470.25,2020-11-06T15:25:18Z
2020-11-06T13:27:25Z,42.805,6.029,13.2979,4.59980,2470.264,2020-11-06T15:28:21Z
2020-11-06T13:30:28Z,42.805,6.029,13.2977,4.59981,2470.287,2020-11-06T15:31:24Z
2020-11-06T13:33:31Z,42.805,6.029,13.2978,4.59982,2470.25,2020-11-06T15:34:27Z
2020-11-06T13:36:34Z,42.805,6.029,13.2979,4.59981,2470.227,2020-11-06T15:37:30Z
2020-11-06T13:39:37Z,42.805,6.029,13.2976,4.59983,2470.273,2020-11-06T15:40:33Z
2020-11-06T13:42:40Z,42.805,6.029,13.2978,4.59979,2470.264,2020-11-06T15:43:36Z
2020-11-06T13:45:44Z,42.805,6.029,13.2979,4.59980,2470.24,2020-11-06T15:46:39Z
2020-11-06T13:48:47Z,42.805,6.029,13.2978,4.59981,2470.25,2020-11-06T15:49:43Z
2020-11-06T13:51:50Z,42.805,6.029,13.2977,4.59981,2470.227,2020-11-06T15:52:46Z
2020-11-06T13:54:53Z,42.805,6.029,13.2977,4.59980,2470.25,2020-11-06T15:55:49Z
2020-11-06T13:57:56Z,42.805,6.029,13.2976,4.59980,2470.273,2020-11-06T15:58:52Z
2020-11-06T14:00:59Z,42.805,6.029,13.2976,4.59980,2470.227,2020-11-06T16:01:55Z
2020-11-06T14:04:02Z,42.805,6.029,13.2981,4.59981,2470.25,2020-11-06T16:04:58Z
2020-11-06T14:07:05Z,42.805,6.029,13.2980,4.59981,2470.25,2020-11-06T16:08:01Z
2020-11-06T14:10:09Z,42.805,6.029,13.2978,4.59979,2470.227,2020-11-06T16:11:04Z
2020-11-06T14:13:12Z,42.805,6.029,13.2979,4.59981,2470.264,2020-11-06T16:14:07Z
2020-11-06T14:16:15Z,42.805,6.029,13.2979,4.59980,2470.203,2020-11-06T16:17:11Z
2020-11-06T14:19:18Z,42.805,6.029,13.2976,4.59982,2470.25,2020-11-06T16:20:14Z
2020-11-06T14:22:21Z,42.805,6.029,13.2977,4.59979,2470.25,2020-11-06T16:23:17Z
2020-11-06T14:25:24Z,42.805,6.029,13.2979,4.59978,2470.264,2020-11-06T16:26:20Z
2020-11-06T14:28:27Z,42.805,6.029,13.2983,4.59980,2470.24,2020-11-06T16:29:23Z
2020-11-06T14:31:30Z,42.805,6.029,13.2978,4.59980,2470.25,2020-11-06T16:32:26Z
2020-11-06T14:34:34Z,42.805,6.029,13.2978,4.59980,2470.227,2020-11-06T16:35:29Z
2020-11-06T14:37:37Z,42.805,6.029,13.2982,4.59981,2470.227,2020-11-06T16:38:32Z
2020-11-06T14:40:40Z,42.805,6.029,13.2981,4.59980,2470.24,2020-11-06T16:41:36Z
2020-11-06T14:43:43Z,42.805,6.029,13.2979,4.59980,2470.227,2020-11-06T16:44:39Z
2020-11-06T14:46:46Z,42.805,6.029,13.2979,4.59980,2470.24,2020-11-06T16:47:42Z
2020-11-06T14:49:49Z,42.805,6.029,13.2981,4.59980,2470.217,2020-11-06T16:50:45Z
2020-11-06T14:52:52Z,42.805,6.029,13.2980,4.59982,2470.227,2020-11-06T16:53:48Z
2020-11-06T14:55:55Z,42.805,6.029,13.2983,4.59981,2470.227,2020-11-06T16:56:51Z
2020-11-06T14:58:58Z,42.805,6.029,13.2979,4.59980,2470.227,2020-11-06T16:59:54Z
2020-11-06T15:02:02Z,42.805,6.029,13.2980,4.59980,2470.203,2020-11-06T17:02:57Z